This demonstration page uses our WeatherBlox Daily Observations layout. Learn more.

Left ArrowRight Arrow

Hourly Observations for November 17, 2016

Temp ( °F °C ) Dew Point ( °F °C ) Humidity (%) Winds ( mph kmh ) Pressure ( in mb ) Visibility ( mi km ) Precip ( " mm )
12:51 am 00:51 Clear 59 15 32 undefined 36 36 E 8 13 29.66 1004 10 16.0934 N/A
1:51 am 01:51 Clear 60 15.6 32 undefined 35 35 E 12 19 29.64 1004 10 16.0934 N/A
2:51 am 02:51 Clear 57 13.9 33 0.6 41 41 NNW 7 11 29.66 1004 10 16.0934 N/A
3:51 am 03:51 Clear 50 10 34 1.1 54 54 N N/A 29.67 1005 10 16.0934 N/A
4:51 am 04:51 Clear 50 10 33 0.6 52 52 ENE 9 15 29.67 1005 10 16.0934 N/A
5:51 am 05:51 Clear 56 13.3 32 undefined 40 40 E 9 15 29.69 1006 10 16.0934 N/A
6:51 am 06:51 Clear 52 11.1 33 0.6 49 49 N N/A 29.73 1007 10 16.0934 N/A
7:51 am 07:51 Sunny 59 15 32 undefined 36 36 NW 6 9 29.75 1007 10 16.0934 N/A
8:51 am 08:51 Sunny 65 18.3 34 1.1 32 32 NW 20 31 29.76 1008 10 16.0934 N/A
9:51 am 09:51 Sunny 65 18.3 39 3.9 39 39 WNW 28 44 29.79 1009 10 16.0934 N/A
10:51 am 10:51 Sunny 67 19.4 39 3.9 36 36 WNW 24 39 29.8 1009 10 16.0934 N/A
11:51 am 11:51 Sunny 69 20.6 36 2.2 30 30 WNW 16 26 29.79 1009 10 16.0934 N/A
12:51 pm 12:51 Sunny 69 20.6 32 undefined 25 25 NW 18 30 29.76 1008 10 16.0934 N/A
1:51 pm 13:51 Sunny 69 20.6 20 -6.7 15 15 NW 22 35 29.75 1007 10 16.0934 N/A
2:51 pm 14:51 Sunny 69 20.6 15 -9.4 12 12 NW 22 35 29.75 1008 10 16.0934 N/A
3:51 pm 15:51 Sunny 68 20 9 -12.8 10 10 WNW 23 37 29.78 1008 10 16.0934 N/A
4:51 pm 16:51 Sunny 65 18.3 6 -14.4 10 10 NW 16 26 29.8 1009 10 16.0934 N/A
5:51 pm 17:51 Clear 60 15.6 4 -15.6 10 10 NW 12 19 29.83 1010 10 16.0934 N/A
6:51 pm 18:51 Clear 58 14.4 7 -13.9 13 13 NNW 15 24 29.85 1011 10 16.0934 N/A
7:51 pm 19:51 Clear 57 13.9 6 -14.4 13 13 NNW 10 17 29.88 1012 10 16.0934 N/A
8:51 pm 20:51 Clear with Light Rain 51 10.6 10 -12.2 19 19 NW 12 19 29.92 1013 10 16.0934 N/A
9:51 pm 21:51 Clear 49 9.4 12 -11.1 22 22 WNW 12 19 29.94 1014 10 16.0934 N/A
10:51 pm 22:51 Clear 47 8.3 13 -10.6 25 25 NNE 3 6 29.97 1015 10 16.0934 N/A
11:51 pm 23:51 Clear 43 6.1 14 -10 31 31 N N/A 29.99 1016 10 16.0934 N/A

Powered by AerisWeather